Regional Weather Roundup
Issued by NWS

Home | Current Version | Previous Version | Text Only | Print | Product List | Glossary Off
Versions: 1 2 3 4 5 6 7 8 9 10 11 12 13 14 15 16 17 18 19 20 21 22 23 24 25 26 27 28 29 30 31 32 33 34 35 36 37 38 39 40 41 42 43 44 45 46 47 48 49 50

000
ASUS45 KCYS 050910
RWRWY

WYOMING REGIONAL WEATHER ROUNDUP
NATIONAL WEATHER SERVICE CHEYENNE WY
300 AM MDT TUE MAY 05 2015

NOTE:  "FAIR" INDICATES FEW OR NO CLOUDS BELOW 12,000 FEET
WITH NO SIGNIFICANT WEATHER AND/OR OBSTRUCTIONS TO VISIBILITY.

WYZ001-051000-
YELLOWSTONE NATIONAL PARK

CITY           SKY/WX    TMP DP  RH WIND       PRES   REMARKS
LK YELLOWSTONE   N/A     29  26  89 NW3       30.06F
W YELLOWSTONE  NOT AVBL

$$
WYZ002>013-054>058-071-098>099-051000-
NORTHERN WYOMING

CITY           SKY/WX    TMP DP  RH WIND       PRES   REMARKS
JACKSON        FAIR      37  34  87 N3        30.00F
CODY           FAIR      52  37  58 S13       29.89F
GREYBULL       FAIR      55  41  59 SE5       29.87F
WORLAND        FAIR      54  42  64 SE9       29.88F
SHERIDAN       FAIR      46  41  82 SW3       29.88S
BUFFALO        FAIR      48  42  80 SE17      29.91F
GILLETTE       FAIR      45  35  68 S16       29.95F
HULETT         FAIR      52  32  46 MISG      29.98F
NEWCASTLE      FAIR      46  28  49 E14       30.03F

$$
WYZ014>020-022>026-101>103-051000-
CENTRAL WYOMING

CITY           SKY/WX    TMP DP  RH WIND       PRES   REMARKS
BIG PINEY      MOCLDY    38  35  89 N8        30.02F WCI  32
PINEDALE       CLOUDY    41  37  87 W5        30.02F
DUBOIS         FAIR      37  32  81 NW12      30.02F WCI  30
LANDER         FAIR      51  39  63 SW6       29.94S
RIVERTON       FAIR      51  39  63 SE3       29.95F
CASPER         FAIR      40  37  89 NE6       29.96F
DOUGLAS        CLOUDY    44  42  93 SE12      30.00F

$$
WYZ021-027>030-104>119-051000-
SOUTHERN WYOMING

CITY           SKY/WX    TMP DP  RH WIND       PRES   REMARKS
EVANSTON       MOCLDY    44  36  73 SE5       29.99F
KEMMERER       FAIR      41  39  93 N10       30.01F
FORT BRIDGER   MOSUNNY   41  41 100 NW3       30.02F
ROCK SPRINGS   FAIR      42  37  82 S6        29.99F
DIXON          FAIR      39  35  84 NE3       30.01S
RAWLINS        FAIR      41  38  89 NE8       30.00F
SARATOGA       FAIR      36  34  93 MISG      30.01F
LARAMIE        CLOUDY    41  40  96 SE17      30.02F
CHEYENNE       FOG       44  43  96 S7        30.04F VSB 1/4
TORRINGTON     CLOUDY    47  42  83 SE13      30.03F
PINE BLUFFS    CLOUDY    43  43 100 SE5       30.05F FOG

$$


USA.gov is the U.S. government's official web portal to all federal, state and local government web resources and services.